Regional Weather Roundup
Issued by NWS Wakefield, VA

Home | Current Version | Previous Version | Graphics & Text | Print | Product List | Glossary On
Versions: 1 2 3 4 5 6 7 8 9 10 11 12 13 14 15 16 17 18 19 20 21 22 23 24 25 26 27 28 29 30 31 32 33 34 35 36 37 38 39 40 41 42 43 44 45 46 47 48 49 50
000
ASUS41 KAKQ 280410
RWRAKQ

REGIONAL WEATHER ROUNDUP
NATIONAL WEATHER SERVICE WAKEFIELD VA
1200 AM EDT THU AUG 28 2014

Note: "fair" indicates few or no clouds below 12,000 feet with no
significant weather and/or obstructions to visibility. * = Denotes
station may not report precipitation (e.g., rain,snow,etc.),
thunder or fog.

VAZ042-051-052>054-056-280500-
NORTHERN VIRGINIA

CITY           SKY/WX    TMP DP  RH WIND       PRES   REMARKS
WASH NATIONAL  PTCLDY    81  65  58 SW5       29.92S
DULLES         MOCLDY    73  69  87 CALM      29.93S
FORT BELVOIR   CLEAR     70  68  93 CALM      29.93S
QUANTICO       CLEAR     74  69  85 NW7       29.93S
FREDERICKSBRG* CLEAR     74  67  78 CALM      29.93R
STAFFORD*      PTCLDY    69  69 100 CALM      29.97S
WARRENTON      CLEAR     70  70 100 CALM      29.94S
CULPEPER*      MOCLDY   N/A N/A N/A CALM      29.95S
MANASSAS*      MOCLDY    72  72 100 CALM      29.94R
LEESBURG*      MOCLDY    77  72  83 W5        29.95S
WINCHESTER     MOCLDY    77  68  73 W8        29.97S
$$

VAZ048-049-060>072-079>083-280500-
CENTRAL AND SOUTH CENTRAL VIRGINIA...AND NORTH CENTRAL NORTH CAROLINA

CITY           SKY/WX    TMP DP  RH WIND       PRES   REMARKS
RICHMOND       PTCLDY    72  64  76 SW3       29.93F
CHESTERFIELD*  CLEAR     70  55  60 CALM      29.96F
HANOVER        CLEAR     70  66  87 CALM      29.95F
TAPPAHANNOCK*  CLEAR     70  64  81 CALM      29.93F
CHARLOTTSVILLE MOCLDY    73  68  84 CALM      29.96S
ORANGE*        MOCLDY    70  66  88 CALM      29.96F
LOUISA*        PTCLDY    70  66  88 SW3       29.95R
FARMVILLE*     CLEAR     70  68  94 SW3       29.94F
SOUTH HILL*    CLEAR     66  66 100 CALM      30.02F
ROANOKE RAPIDS CLEAR     64  63  94 SW5       29.96S
RALEIGH        PTCLDY    65  61  87 CALM      29.99F
$$

VAZ088>098-280500-
SOUTHEAST VIRGINIA

CITY           SKY/WX    TMP DP  RH WIND       PRES   REMARKS
NORFOLK        CLEAR     70  64  81 W3        29.93S
VIRGINIA BEACH CLEAR     69  66  90 SW3       29.91F
NORFOLK NAVAL  CLEAR     72  64  76 W3        29.94S
WEST POINT*    CLEAR     68  65  89 CALM      29.94F
NEWPORT NEWS   CLEAR     70  62  76 CALM      29.94S
LANGLEY AFB    CLEAR     69  66  91 W3        29.93S
FORT EUSTIS    CLEAR     71  69  91 CALM      29.92S
WILLIAMSBURG*  CLEAR     72  66  83 CALM      29.94F
FRANKLIN*      CLEAR     64  64 100 CALM      29.95R
WAKEFIELD      CLEAR     67  64  90 CALM      29.94F
$$

VAZ020-022-025-037-045-280500-
WESTERN AND SOUTHWEST VIRGINIA

CITY           SKY/WX    TMP DP  RH WIND       PRES   REMARKS
STAUNTON*      MOCLDY    71  66  83 CALM      30.01F
HOT SPRINGS VA MOCLDY    66  63  89 NW10      30.17F
LYNCHBURG      PTCLDY    69  66  90 S3        30.00F
DANVILLE       CLEAR     68  65  90 S3        30.00F
MARTINSVILLE   CLEAR     65  65 100 CALM      30.04F
ROANOKE        CLEAR     71  64  78 W5        30.03F
BLACKSBURG     CLEAR     70  66  88 CALM      30.11S
DUBLIN*        CLEAR     72  66  82 NW6       30.11S
MARION*        CLEAR    N/A N/A N/A W3        30.16F
HILLSVILLE*    CLEAR     68  60  77 CALM      30.13F
RICHLANDS*     CLEAR     70  62  76 CALM      30.16S
WISE*          CLEAR     66  59  77 CALM      30.17S
ABINGDON*      CLEAR     66  63  90 CALM      30.12S
$$

MDZ021>025-VAZ099-100-280500-
SOUTHERN MARYLAND AND THE DELMARVA PENINSULA

CITY           SKY/WX    TMP DP  RH WIND       PRES   REMARKS
PATUXENT RIVER CLEAR     74  67  78 SW7       29.91S
BAY BRIDGE APT   N/A     77  68  73 W3        29.90F
LEONARDTOWN    CLEAR     72  64  78 CALM      29.93S
DOVER          CLEAR     72  67  85 SW6       29.88F
GEORGETOWN     CLEAR     70  64  81 S9        29.91F
EASTON         CLEAR     74  70  87 CALM      29.94S
CAMBRIDGE      CLEAR     72  68  88 CALM      29.91S
SALISBURY      CLEAR     71  64  78 CALM      29.91F
OCEAN CITY     CLEAR     64  62  93 CALM      29.90F
WALLOPS ISLAND CLEAR     70  65  84 CALM      29.91F
ACCOMACK*      NOT AVBL
$$

NCZ012>017-030>032-280500-
EASTERN NORTH CAROLINA

CITY           SKY/WX    TMP DP  RH WIND       PRES   REMARKS
ELIZABETH CITY CLEAR     66  64  93 W5        29.93S
AHOSKIE*       CLEAR     64  61  93 CALM      29.95F
EDENTON*       CLEAR     68  66  94 CALM      29.94S
CURRITUCK*     CLEAR     68  65  91 CALM      29.93F
KILL DEVIL HLS CLEAR     71  69  92 NW3       29.91S
MANTEO         CLEAR     71  68  89 NW3       29.92S
CAPE HATTERAS  CLEAR     73  67  81 VRB5      29.93R
GOLDSBORO      CLEAR     68  67  97 CALM      29.96S
WASHINGTON     CLEAR     67  65  92 CALM      29.96S
GREENVILLE     CLEAR     66  64  94 CALM      29.98S
NEW BERN       CLEAR     70  65  84 CALM      29.96F
WILMINGTON     CLEAR     69  65  86 CALM      29.98R
$$

VAZ048-280500-
ELSEWHERE

CITY           SKY/WX    TMP DP  RH WIND       PRES   REMARKS
HARRISBURG PA  MOCLDY    79  70  74 N7        29.92R
BALTIMORE      MOCLDY    75  68  78 W3        29.90F
ANNAPOLIS        N/A     77  69  76 CALM      29.90S
ANDREWS AFB    PTCLDY    76  68  76 W8        29.92S
WILMINGTON DE  PTCLDY    76  67  73 W3        29.90F
PHILADELPHIA   PTCLDY    77  67  71 W8        29.89F
WILDWOOD NJ*   CLEAR     72  64  78 SW3       29.91F
ATLANTIC CITY  CLEAR     71  66  84 CALM      29.88F
HENDERSON NC   CLEAR     68  63  83 W3        29.99S
GREENSBORO     PTCLDY    72  63  73 CALM      30.02S
ROCKY MOUNT    CLEAR     65  63  93 CALM      29.96F
FAYETTEVILLE   CLEAR     71  63  75 W3        29.99R
CHARLOTTE      CLEAR     66  61  84 CALM      30.04S
$$

VAZ100-280500-
MARINE

STATION/POSITION TIME  TEMP    WIND        PRES    WAVE   SWELL
                       AIR SEA DIR/SP/G            HT/PER HT/PER
                 (UTC) (F)     (DEG/KT/KT) (MB)    (FT/S) (FT/S)
44066 TX TWR #4  0400   73 74  220/  4/  6 1011.8F   6/14   5/14
CAPE MAY NJ      0400   75 80  230/  8/ 10 1011.9S
LEWES DE         0400   71 78  240/  6/  9 1012.2R
15NM E FENWICK I 0400   74 74              1012.0F   3/ 9
OCEAN-CITY-INLET 0400   72 76  280/  4/  4 1012.1F
WACHAPREAGUE VA  0400   70 80  260/  3/  4 1013.1R
THOMAS POINT MD  0400   78 79  260/  7/  8 1013.4F
GOOSES REEF MD   0400   78     270/  8/  8 1013.3R
COVE POINT MD    0400   78     270/  8/ 10 1012.6R
SOLOMONS ISLAND  0400      81                N/A
BISHOPS HEAD MD  0400   79 80  250/ 10/ 10 1012.2F
PINEY POINT MD   0400          270/  8/ 10   N/A
POTOMAC MD       0400   78     260/ 10/ 12 1012.2F
CAMBRIDGE MD     0400   75 78  200/  3/  3 1012.5R
LEWISETTA VA     0400   75 81  260/  8/  9 1012.5F
RAPPAHANNOCK LGT 0400          230/  9/ 10 1013.6R
STINGRAY PT      0400   77     260/  8/ 10   N/A
YORK RVR RNG VA  0400   77     270/  6/  7 1013.0R
YORKTOWN VA      0400   74 80  250/  4/  6 1013.2S
JAMESTOWN VA     0400   73     240/  6/  8   N/A
DOMINION TERM VA 0400   76     270/  5/  6 1013.6R
KIPTOPEKE VA     0400      81  280/  7/  8   N/A
CHES BAY BRIDGE  0400   76 78  230/  7/  8 1012.7F
CAPE HENRY VA    0400   72     240/  6/  7 1011.9F
CHESAPEAKE LGHT  0300   74     280/  6/  7 1013.8F
WILLOUBY STN VA  0400   77     310/  3/  6 1012.3R
S CRANEY ISL VA  0400          230/  4/  5 1013.2S
CAPE HENRY BUOY  0400      76                N/A     4/13   2/13
1ST LANDING BUOY 0400   76     250/  6/  8 1012.9S
CAPE CHARLES BUO 0400      76                N/A     5/14   5/14
OFFSHORE WE BUOY 0400      75                N/A     5/13   5/13
64NM E OF VA BCH 0400   74 78  320/ 10/ 14 1011.9F   9/12   8/12
DUCK PIER NC     0400   74 77  320/  5/  7 1012.4S
44056 DUCK FRF   0400                        N/A     6/10   3/13
OREGON INLET NC  0400   72 79  330/  5/  6 1012.9R
HATTERAS NC      0400   77 80  330/ 11/ 13 1013.8R
DIAMOND SHLS NC  0400   76     330/ 14/ 17 1012.6R   9/11   8/11
CAPE LOOKOUT NC  0300   77     330/  7/  7 1014.0R
$$



USA.gov is the U.S. government's official web portal to all federal, state and local government web resources and services.